contact:dominique.lefevre@mio.osupytheas.fr, maurice.libes@osupytheas.fr, didier.mallarino@osupytheas.fr
Project:EMSO http://www.emso-fr.org/EMSO-France
Depth: 2436.0 m
Title:EMSO Ligure Ouest : Data MII capteur MICROCAT
DateTime_Computer,Latitude,Longitude,Temperature,Conductivity,Pressure,DateTime_Instrument
DateTime_Computer,Latitude,Longitude,degC,S m-1,dbar,DateTime_Instrument
2019-07-08T00:02:30Z,42.805,6.029,13.2970,4.59967,2470.007,2019-7-08T02:02:48Z
2019-07-08T00:05:33Z,42.805,6.029,13.2982,4.59988,2469.97,2019-7-08T02:05:51Z
2019-07-08T00:08:36Z,42.805,6.029,13.2993,4.60034,2469.97,2019-7-08T02:08:54Z
2019-07-08T00:11:39Z,42.805,6.029,13.2991,4.60061,2469.984,2019-7-08T02:11:57Z
2019-07-08T00:14:42Z,42.805,6.029,13.2996,4.60041,2469.993,2019-7-08T02:15:00Z
2019-07-08T00:17:45Z,42.805,6.029,13.2997,4.59994,2469.933,2019-7-08T02:18:02Z
2019-07-08T00:20:48Z,42.805,6.029,13.2990,4.60031,2469.984,2019-7-08T02:21:05Z
2019-07-08T00:23:51Z,42.805,6.029,13.3001,4.60026,2469.984,2019-7-08T02:24:08Z
2019-07-08T00:26:54Z,42.805,6.029,13.2976,4.60033,2469.96,2019-7-08T02:27:11Z
2019-07-08T00:29:56Z,42.805,6.029,13.2982,4.60042,2469.97,2019-7-08T02:30:14Z
2019-07-08T00:32:59Z,42.805,6.029,13.2993,4.60014,2470.007,2019-7-08T02:33:17Z
2019-07-08T00:36:02Z,42.805,6.029,13.2983,4.60044,2469.937,2019-7-08T02:36:20Z
2019-07-08T00:39:05Z,42.805,6.029,13.2996,4.60024,2469.984,2019-7-08T02:39:23Z
2019-07-08T00:42:08Z,42.805,6.029,13.2991,4.60018,2469.96,2019-7-08T02:42:26Z
2019-07-08T00:45:11Z,42.805,6.029,13.2982,4.60024,2469.96,2019-7-08T02:45:29Z
2019-07-08T00:48:14Z,42.805,6.029,13.3000,4.60029,2469.97,2019-7-08T02:48:32Z
2019-07-08T00:51:17Z,42.805,6.029,13.2989,4.60052,2469.96,2019-7-08T02:51:35Z
2019-07-08T00:54:20Z,42.805,6.029,13.2996,4.60066,2469.984,2019-7-08T02:54:38Z
2019-07-08T00:57:23Z,42.805,6.029,13.2995,4.60024,2469.984,2019-7-08T02:57:41Z
2019-07-08T01:00:26Z,42.805,6.029,13.3003,4.60041,2469.914,2019-7-08T03:00:44Z
2019-07-08T01:03:29Z,42.805,6.029,13.3000,4.60070,2469.923,2019-7-08T03:03:47Z
2019-07-08T01:06:32Z,42.805,6.029,13.2990,4.60036,2469.947,2019-7-08T03:06:50Z
2019-07-08T01:09:35Z,42.805,6.029,13.2988,4.60052,2469.96,2019-7-08T03:09:53Z
2019-07-08T01:12:38Z,42.805,6.029,13.2986,4.60024,2469.923,2019-7-08T03:12:55Z
2019-07-08T01:15:41Z,42.805,6.029,13.2984,4.60041,2469.914,2019-7-08T03:15:58Z
2019-07-08T01:18:44Z,42.805,6.029,13.2981,4.60036,2469.984,2019-7-08T03:19:01Z
2019-07-08T01:21:47Z,42.805,6.029,13.2988,4.60052,2469.947,2019-7-08T03:22:04Z
2019-07-08T01:24:49Z,42.805,6.029,13.2980,4.60069,2469.97,2019-7-08T03:25:07Z
2019-07-08T01:27:52Z,42.805,6.029,13.2977,4.60060,2469.923,2019-7-08T03:28:10Z
2019-07-08T01:30:55Z,42.805,6.029,13.2979,4.60053,2469.947,2019-7-08T03:31:13Z
2019-07-08T01:33:58Z,42.805,6.029,13.2988,4.60057,2469.96,2019-7-08T03:34:16Z
2019-07-08T01:37:01Z,42.805,6.029,13.2996,4.60080,2469.937,2019-7-08T03:37:19Z
2019-07-08T01:40:04Z,42.805,6.029,13.2991,4.60032,2469.923,2019-7-08T03:40:22Z
2019-07-08T01:43:07Z,42.805,6.029,13.2979,4.60066,2469.9,2019-7-08T03:43:25Z
2019-07-08T01:46:10Z,42.805,6.029,13.2991,4.60009,2469.9,2019-7-08T03:46:28Z
2019-07-08T01:49:13Z,42.805,6.029,13.3003,4.60001,2469.9,2019-7-08T03:49:31Z
2019-07-08T01:52:16Z,42.805,6.029,13.3010,4.60019,2469.937,2019-7-08T03:52:34Z
2019-07-08T01:55:19Z,42.805,6.029,13.2990,4.60008,2469.9,2019-7-08T03:55:37Z
2019-07-08T01:58:22Z,42.805,6.029,13.2990,4.59982,2469.89,2019-7-08T03:58:40Z
2019-07-08T02:01:25Z,42.805,6.029,13.2992,4.59991,2469.9,2019-7-08T04:01:43Z
2019-07-08T02:04:28Z,42.805,6.029,13.2996,4.60039,2469.9,2019-7-08T04:04:46Z
2019-07-08T02:07:31Z,42.805,6.029,13.3000,4.60076,2469.914,2019-7-08T04:07:48Z
2019-07-08T02:10:34Z,42.805,6.029,13.3002,4.60047,2469.914,2019-7-08T04:10:51Z
2019-07-08T02:13:37Z,42.805,6.029,13.3020,4.60027,2469.89,2019-7-08T04:13:54Z
2019-07-08T02:16:40Z,42.805,6.029,13.3006,4.60009,2469.9,2019-7-08T04:16:57Z
2019-07-08T02:19:42Z,42.805,6.029,13.3002,4.59998,2469.89,2019-7-08T04:20:00Z
2019-07-08T02:22:45Z,42.805,6.029,13.2990,4.60024,2469.89,2019-7-08T04:23:03Z
2019-07-08T02:25:48Z,42.805,6.029,13.3002,4.59999,2469.914,2019-7-08T04:26:06Z
2019-07-08T02:28:51Z,42.805,6.029,13.3017,4.60020,2469.923,2019-7-08T04:29:09Z
2019-07-08T02:31:54Z,42.805,6.029,13.2992,4.60019,2469.937,2019-7-08T04:32:12Z
2019-07-08T02:34:57Z,42.805,6.029,13.2993,4.60044,2469.914,2019-7-08T04:35:15Z
2019-07-08T02:38:00Z,42.805,6.029,13.3008,4.60037,2469.937,2019-7-08T04:38:18Z
2019-07-08T02:41:03Z,42.805,6.029,13.3010,4.59981,2469.914,2019-7-08T04:41:21Z
2019-07-08T02:44:06Z,42.805,6.029,13.3005,4.60028,2469.876,2019-7-08T04:44:24Z
2019-07-08T02:47:09Z,42.805,6.029,13.2993,4.60023,2469.9,2019-7-08T04:47:27Z
2019-07-08T02:50:12Z,42.805,6.029,13.2996,4.59990,2469.876,2019-7-08T04:50:30Z
2019-07-08T02:53:15Z,42.805,6.029,13.3004,4.60010,2469.853,2019-7-08T04:53:33Z
2019-07-08T02:56:18Z,42.805,6.029,13.3039,4.59990,2469.876,2019-7-08T04:56:36Z
2019-07-08T02:59:21Z,42.805,6.029,13.2970,4.59991,2469.876,2019-7-08T04:59:39Z
2019-07-08T03:02:24Z,42.805,6.029,13.2989,4.59977,2469.876,2019-7-08T05:02:41Z
2019-07-08T03:05:27Z,42.805,6.029,13.2982,4.59972,2469.876,2019-7-08T05:05:44Z
2019-07-08T03:08:30Z,42.805,6.029,13.3004,4.59966,2469.853,2019-7-08T05:08:47Z
2019-07-08T03:11:32Z,42.805,6.029,13.3001,4.59963,2469.853,2019-7-08T05:11:50Z
2019-07-08T03:14:35Z,42.805,6.029,13.2998,4.59968,2469.853,2019-7-08T05:14:53Z
2019-07-08T03:17:38Z,42.805,6.029,13.3008,4.59992,2469.867,2019-7-08T05:17:56Z
2019-07-08T03:20:41Z,42.805,6.029,13.2994,4.59990,2469.867,2019-7-08T05:20:59Z
2019-07-08T03:23:44Z,42.805,6.029,13.2993,4.59991,2469.853,2019-7-08T05:24:02Z
2019-07-08T03:26:47Z,42.805,6.029,13.3009,4.59979,2469.867,2019-7-08T05:27:05Z
2019-07-08T03:29:50Z,42.805,6.029,13.3019,4.59983,2469.867,2019-7-08T05:30:08Z
2019-07-08T03:32:53Z,42.805,6.029,13.3029,4.59978,2469.844,2019-7-08T05:33:11Z
2019-07-08T03:35:56Z,42.805,6.029,13.3020,4.59991,2469.853,2019-7-08T05:36:14Z
2019-07-08T03:38:59Z,42.805,6.029,13.2967,4.60016,2469.867,2019-7-08T05:39:17Z
2019-07-08T03:42:02Z,42.805,6.029,13.3000,4.59999,2469.867,2019-7-08T05:42:20Z
2019-07-08T03:45:05Z,42.805,6.029,13.2958,4.60053,2469.876,2019-7-08T05:45:23Z
2019-07-08T03:48:08Z,42.805,6.029,13.2962,4.59976,2469.89,2019-7-08T05:48:26Z
2019-07-08T03:51:11Z,42.805,6.029,13.2957,4.59980,2469.853,2019-7-08T05:51:29Z
2019-07-08T03:54:14Z,42.805,6.029,13.2964,4.59993,2469.83,2019-7-08T05:54:31Z
2019-07-08T03:57:17Z,42.805,6.029,13.2961,4.59985,2469.853,2019-7-08T05:57:34Z
2019-07-08T04:00:20Z,42.805,6.029,13.2957,4.59991,2469.83,2019-7-08T06:00:37Z
2019-07-08T04:03:23Z,42.805,6.029,13.2952,4.59991,2469.844,2019-7-08T06:03:40Z
2019-07-08T04:06:25Z,42.805,6.029,13.2954,4.59978,2469.83,2019-7-08T06:06:43Z
2019-07-08T04:09:28Z,42.805,6.029,13.2978,4.59985,2469.844,2019-7-08T06:09:46Z
2019-07-08T04:12:31Z,42.805,6.029,13.3109,4.59978,2469.867,2019-7-08T06:12:49Z
2019-07-08T04:15:34Z,42.805,6.029,13.2975,4.59971,2469.844,2019-7-08T06:15:52Z
2019-07-08T04:18:37Z,42.805,6.029,13.2961,4.59973,2469.821,2019-7-08T06:18:55Z
2019-07-08T04:21:40Z,42.805,6.029,13.2967,4.59964,2469.844,2019-7-08T06:21:58Z
2019-07-08T04:24:43Z,42.805,6.029,13.2956,4.59967,2469.844,2019-7-08T06:25:01Z
2019-07-08T04:27:46Z,42.805,6.029,13.2958,4.59972,2469.806,2019-7-08T06:28:04Z
2019-07-08T04:30:49Z,42.805,6.029,13.2960,4.59982,2469.83,2019-7-08T06:31:07Z
2019-07-08T04:33:52Z,42.805,6.029,13.2956,4.59991,2469.844,2019-7-08T06:34:10Z
2019-07-08T04:36:55Z,42.805,6.029,13.2962,4.59968,2469.806,2019-7-08T06:37:13Z
2019-07-08T04:39:58Z,42.805,6.029,13.2958,4.59962,2469.806,2019-7-08T06:40:16Z
2019-07-08T04:43:01Z,42.805,6.029,13.2957,4.59963,2469.821,2019-7-08T06:43:19Z
2019-07-08T04:46:04Z,42.805,6.029,13.2960,4.59964,2469.821,2019-7-08T06:46:22Z
2019-07-08T04:49:07Z,42.805,6.029,13.2958,4.59964,2469.806,2019-7-08T06:49:24Z
2019-07-08T04:52:10Z,42.805,6.029,13.2958,4.59968,2469.783,2019-7-08T06:52:27Z
2019-07-08T04:55:13Z,42.805,6.029,13.2961,4.59966,2469.806,2019-7-08T06:55:30Z
2019-07-08T04:58:16Z,42.805,6.029,13.2966,4.59976,2469.821,2019-7-08T06:58:33Z
2019-07-08T05:01:18Z,42.805,6.029,13.2968,4.59969,2469.797,2019-7-08T07:01:36Z
2019-07-08T05:04:21Z,42.805,6.029,13.2973,4.59962,2469.797,2019-7-08T07:04:39Z
2019-07-08T05:07:24Z,42.805,6.029,13.2986,4.59964,2469.797,2019-7-08T07:07:42Z
2019-07-08T05:10:27Z,42.805,6.029,13.2982,4.59965,2469.769,2019-7-08T07:10:45Z
2019-07-08T05:13:30Z,42.805,6.029,13.2979,4.59963,2469.783,2019-7-08T07:13:48Z
2019-07-08T05:16:33Z,42.805,6.029,13.2972,4.59963,2469.797,2019-7-08T07:16:51Z
2019-07-08T05:19:36Z,42.805,6.029,13.2968,4.59961,2469.783,2019-7-08T07:19:54Z
2019-07-08T05:22:39Z,42.805,6.029,13.2961,4.59962,2469.76,2019-7-08T07:22:57Z
2019-07-08T05:25:42Z,42.805,6.029,13.2958,4.59961,2469.783,2019-7-08T07:26:00Z
2019-07-08T05:28:45Z,42.805,6.029,13.2957,4.59963,2469.783,2019-7-08T07:29:03Z
2019-07-08T05:31:48Z,42.805,6.029,13.2955,4.59960,2469.773,2019-7-08T07:32:06Z
2019-07-08T05:34:51Z,42.805,6.029,13.2954,4.59961,2469.821,2019-7-08T07:35:09Z
2019-07-08T05:37:54Z,42.805,6.029,13.2955,4.59959,2469.76,2019-7-08T07:38:12Z
2019-07-08T05:40:57Z,42.805,6.029,13.2955,4.59959,2469.797,2019-7-08T07:41:15Z
2019-07-08T05:44:00Z,42.805,6.029,13.2953,4.59958,2469.746,2019-7-08T07:44:17Z
2019-07-08T05:47:03Z,42.805,6.029,13.2955,4.59961,2469.76,2019-7-08T07:47:20Z
2019-07-08T05:50:06Z,42.805,6.029,13.2960,4.59959,2469.783,2019-7-08T07:50:23Z
2019-07-08T05:53:08Z,42.805,6.029,13.2961,4.59958,2469.783,2019-7-08T07:53:26Z
2019-07-08T05:56:11Z,42.805,6.029,13.2956,4.59961,2469.773,2019-7-08T07:56:29Z
2019-07-08T05:59:14Z,42.805,6.029,13.2959,4.59957,2469.75,2019-7-08T07:59:32Z
2019-07-08T06:02:17Z,42.805,6.029,13.2961,4.59960,2469.773,2019-7-08T08:02:35Z
2019-07-08T06:05:20Z,42.805,6.029,13.2959,4.59964,2469.806,2019-7-08T08:05:38Z
2019-07-08T06:08:23Z,42.805,6.029,13.2954,4.59964,2469.783,2019-7-08T08:08:41Z
2019-07-08T06:11:26Z,42.805,6.029,13.2958,4.59964,2469.797,2019-7-08T08:11:44Z
2019-07-08T06:14:29Z,42.805,6.029,13.2952,4.59958,2469.773,2019-7-08T08:14:47Z
2019-07-08T06:17:32Z,42.805,6.029,13.2958,4.59968,2469.797,2019-7-08T08:17:50Z
2019-07-08T06:20:35Z,42.805,6.029,13.2957,4.59959,2469.797,2019-7-08T08:20:53Z
2019-07-08T06:23:38Z,42.805,6.029,13.2953,4.59961,2469.76,2019-7-08T08:23:56Z
2019-07-08T06:26:41Z,42.805,6.029,13.2952,4.59958,2469.76,2019-7-08T08:26:59Z
2019-07-08T06:29:44Z,42.805,6.029,13.2958,4.59957,2469.737,2019-7-08T08:30:02Z
2019-07-08T06:32:47Z,42.805,6.029,13.2963,4.59974,2469.806,2019-7-08T08:33:05Z
2019-07-08T06:35:50Z,42.805,6.029,13.2962,4.59958,2469.773,2019-7-08T08:36:08Z
2019-07-08T06:38:53Z,42.805,6.029,13.2960,4.59963,2469.773,2019-7-08T08:39:10Z
2019-07-08T06:41:56Z,42.805,6.029,13.2973,4.59961,2469.783,2019-7-08T08:42:13Z
2019-07-08T06:44:58Z,42.805,6.029,13.2974,4.59960,2469.773,2019-7-08T08:45:16Z
2019-07-08T06:48:01Z,42.805,6.029,13.2963,4.59957,2469.783,2019-7-08T08:48:19Z
2019-07-08T06:51:04Z,42.805,6.029,13.2958,4.59958,2469.76,2019-7-08T08:51:22Z
2019-07-08T06:54:07Z,42.805,6.029,13.2958,4.59961,2469.783,2019-7-08T08:54:25Z
2019-07-08T06:57:10Z,42.805,6.029,13.2962,4.59963,2469.783,2019-7-08T08:57:28Z
2019-07-08T07:00:13Z,42.805,6.029,13.2960,4.59958,2469.76,2019-7-08T09:00:31Z
2019-07-08T07:03:16Z,42.805,6.029,13.2967,4.59960,2469.773,2019-7-08T09:03:34Z
2019-07-08T07:06:19Z,42.805,6.029,13.2968,4.59960,2469.76,2019-7-08T09:06:37Z
2019-07-08T07:09:22Z,42.805,6.029,13.2967,4.59961,2469.783,2019-7-08T09:09:40Z
2019-07-08T07:12:25Z,42.805,6.029,13.2967,4.59960,2469.773,2019-7-08T09:12:43Z
2019-07-08T07:15:28Z,42.805,6.029,13.2956,4.59973,2469.76,2019-7-08T09:15:46Z
2019-07-08T07:18:31Z,42.805,6.029,13.2958,4.59961,2469.76,2019-7-08T09:18:49Z
2019-07-08T07:21:34Z,42.805,6.029,13.2961,4.59963,2469.783,2019-7-08T09:21:52Z
2019-07-08T07:24:37Z,42.805,6.029,13.2958,4.59961,2469.783,2019-7-08T09:24:55Z
2019-07-08T07:27:40Z,42.805,6.029,13.2959,4.59961,2469.76,2019-7-08T09:27:58Z
2019-07-08T07:30:43Z,42.805,6.029,13.2961,4.59960,2469.773,2019-7-08T09:31:00Z
2019-07-08T07:33:46Z,42.805,6.029,13.2960,4.59961,2469.797,2019-7-08T09:34:03Z
2019-07-08T07:36:49Z,42.805,6.029,13.2962,4.59959,2469.797,2019-7-08T09:37:06Z
2019-07-08T07:39:51Z,42.805,6.029,13.2958,4.59964,2469.76,2019-7-08T09:40:09Z
2019-07-08T07:42:54Z,42.805,6.029,13.2962,4.59960,2469.806,2019-7-08T09:43:12Z
2019-07-08T07:45:57Z,42.805,6.029,13.2963,4.59963,2469.773,2019-7-08T09:46:15Z
2019-07-08T07:49:00Z,42.805,6.029,13.2961,4.59956,2469.783,2019-7-08T09:49:18Z
2019-07-08T07:52:03Z,42.805,6.029,13.2971,4.59957,2469.783,2019-7-08T09:52:21Z
2019-07-08T07:55:06Z,42.805,6.029,13.2958,4.59963,2469.783,2019-7-08T09:55:24Z
2019-07-08T07:58:09Z,42.805,6.029,13.2962,4.59956,2469.797,2019-7-08T09:58:27Z
2019-07-08T08:01:12Z,42.805,6.029,13.2952,4.59958,2469.797,2019-7-08T10:01:30Z
2019-07-08T08:04:15Z,42.805,6.029,13.2957,4.59957,2469.821,2019-7-08T10:04:33Z
2019-07-08T08:07:18Z,42.805,6.029,13.2957,4.59964,2469.797,2019-7-08T10:07:36Z
2019-07-08T08:10:21Z,42.805,6.029,13.2956,4.59960,2469.844,2019-7-08T10:10:39Z
2019-07-08T08:13:24Z,42.805,6.029,13.2958,4.59961,2469.783,2019-7-08T10:13:42Z
2019-07-08T08:16:27Z,42.805,6.029,13.2960,4.59956,2469.806,2019-7-08T10:16:45Z
2019-07-08T08:19:30Z,42.805,6.029,13.2957,4.59958,2469.83,2019-7-08T10:19:48Z
2019-07-08T08:22:33Z,42.805,6.029,13.2956,4.59961,2469.821,2019-7-08T10:22:51Z
2019-07-08T08:25:36Z,42.805,6.029,13.2956,4.59957,2469.806,2019-7-08T10:25:54Z
2019-07-08T08:28:39Z,42.805,6.029,13.2960,4.59956,2469.821,2019-7-08T10:28:56Z
2019-07-08T08:31:42Z,42.805,6.029,13.2964,4.59962,2469.83,2019-7-08T10:31:59Z
2019-07-08T08:34:45Z,42.805,6.029,13.2965,4.59955,2469.83,2019-7-08T10:35:02Z
2019-07-08T08:37:48Z,42.805,6.029,13.2964,4.59956,2469.83,2019-7-08T10:38:05Z
2019-07-08T08:40:50Z,42.805,6.029,13.2957,4.59956,2469.806,2019-7-08T10:41:08Z
2019-07-08T08:43:53Z,42.805,6.029,13.2958,4.59955,2469.83,2019-7-08T10:44:11Z
2019-07-08T08:46:56Z,42.805,6.029,13.2955,4.59954,2469.83,2019-7-08T10:47:14Z
2019-07-08T08:49:59Z,42.805,6.029,13.2952,4.59957,2469.844,2019-7-08T10:50:17Z
2019-07-08T08:53:02Z,42.805,6.029,13.2960,4.59953,2469.821,2019-7-08T10:53:20Z
2019-07-08T08:56:05Z,42.805,6.029,13.2957,4.59953,2469.806,2019-7-08T10:56:23Z
2019-07-08T08:59:08Z,42.805,6.029,13.2953,4.59953,2469.83,2019-7-08T10:59:26Z
2019-07-08T09:02:11Z,42.805,6.029,13.2958,4.59953,2469.844,2019-7-08T11:02:29Z
2019-07-08T09:05:14Z,42.805,6.029,13.2957,4.59954,2469.867,2019-7-08T11:05:32Z
2019-07-08T09:08:17Z,42.805,6.029,13.2964,4.59954,2469.806,2019-7-08T11:08:35Z
2019-07-08T09:11:20Z,42.805,6.029,13.2959,4.59957,2469.853,2019-7-08T11:11:38Z
2019-07-08T09:14:23Z,42.805,6.029,13.2958,4.59958,2469.83,2019-7-08T11:14:41Z
2019-07-08T09:17:26Z,42.805,6.029,13.2958,4.59964,2469.844,2019-7-08T11:17:44Z
2019-07-08T09:20:29Z,42.805,6.029,13.2962,4.59957,2469.783,2019-7-08T11:20:47Z
2019-07-08T09:23:32Z,42.805,6.029,13.2957,4.59966,2469.844,2019-7-08T11:23:50Z
2019-07-08T09:26:35Z,42.805,6.029,13.2960,4.59956,2469.83,2019-7-08T11:26:52Z
2019-07-08T09:29:38Z,42.805,6.029,13.2956,4.59956,2469.844,2019-7-08T11:29:55Z
2019-07-08T09:32:41Z,42.805,6.029,13.2955,4.59957,2469.844,2019-7-08T11:32:58Z
2019-07-08T09:35:43Z,42.805,6.029,13.2954,4.59964,2469.876,2019-7-08T11:36:01Z
2019-07-08T09:38:46Z,42.805,6.029,13.2954,4.59955,2469.867,2019-7-08T11:39:04Z
2019-07-08T09:41:49Z,42.805,6.029,13.2956,4.59955,2469.844,2019-7-08T11:42:07Z
2019-07-08T09:44:52Z,42.805,6.029,13.2961,4.59954,2469.83,2019-7-08T11:45:10Z
2019-07-08T09:47:55Z,42.805,6.029,13.2958,4.59955,2469.876,2019-7-08T11:48:13Z
2019-07-08T09:50:58Z,42.805,6.029,13.2958,4.59955,2469.89,2019-7-08T11:51:16Z
2019-07-08T09:54:01Z,42.805,6.029,13.2956,4.59957,2469.853,2019-7-08T11:54:19Z
2019-07-08T09:57:04Z,42.805,6.029,13.2956,4.59961,2469.867,2019-7-08T11:57:22Z
2019-07-08T10:00:07Z,42.805,6.029,13.2955,4.59955,2469.89,2019-7-08T12:00:25Z
2019-07-08T10:03:10Z,42.805,6.029,13.2957,4.59958,2469.844,2019-7-08T12:03:28Z
2019-07-08T10:06:13Z,42.805,6.029,13.2955,4.59956,2469.844,2019-7-08T12:06:31Z
2019-07-08T10:09:16Z,42.805,6.029,13.2957,4.59976,2469.89,2019-7-08T12:09:34Z
2019-07-08T10:12:19Z,42.805,6.029,13.2956,4.59957,2469.83,2019-7-08T12:12:37Z
2019-07-08T10:15:22Z,42.805,6.029,13.2958,4.59954,2469.806,2019-7-08T12:15:40Z
2019-07-08T10:18:25Z,42.805,6.029,13.2957,4.59957,2469.876,2019-7-08T12:18:43Z
2019-07-08T10:21:28Z,42.805,6.029,13.2953,4.59955,2469.89,2019-7-08T12:21:46Z
2019-07-08T10:24:31Z,42.805,6.029,13.2956,4.59956,2469.853,2019-7-08T12:24:48Z
2019-07-08T10:27:34Z,42.805,6.029,13.2955,4.59956,2469.853,2019-7-08T12:27:51Z
2019-07-08T10:30:37Z,42.805,6.029,13.2955,4.59956,2469.844,2019-7-08T12:30:54Z
2019-07-08T10:33:40Z,42.805,6.029,13.2956,4.59958,2469.89,2019-7-08T12:33:57Z
2019-07-08T10:36:42Z,42.805,6.029,13.2955,4.59958,2469.89,2019-7-08T12:37:00Z
2019-07-08T10:39:45Z,42.805,6.029,13.2956,4.59957,2469.83,2019-7-08T12:40:03Z
2019-07-08T10:42:48Z,42.805,6.029,13.2960,4.59958,2469.89,2019-7-08T12:43:06Z
2019-07-08T10:45:51Z,42.805,6.029,13.2958,4.59958,2469.853,2019-7-08T12:46:09Z
2019-07-08T10:48:54Z,42.805,6.029,13.2960,4.59958,2469.89,2019-7-08T12:49:12Z
2019-07-08T10:51:57Z,42.805,6.029,13.2957,4.59957,2469.89,2019-7-08T12:52:15Z
2019-07-08T10:55:00Z,42.805,6.029,13.2958,4.59960,2469.914,2019-7-08T12:55:18Z
2019-07-08T10:58:03Z,42.805,6.029,13.2958,4.59957,2469.816,2019-7-08T12:58:21Z
2019-07-08T11:01:06Z,42.805,6.029,13.2953,4.59960,2469.853,2019-7-08T13:01:24Z
2019-07-08T11:04:09Z,42.805,6.029,13.2958,4.59956,2469.853,2019-7-08T13:04:27Z
2019-07-08T11:07:12Z,42.805,6.029,13.2953,4.59961,2469.839,2019-7-08T13:07:30Z
2019-07-08T11:10:15Z,42.805,6.029,13.2957,4.59960,2469.876,2019-7-08T13:10:33Z
2019-07-08T11:13:18Z,42.805,6.029,13.2953,4.59957,2469.914,2019-7-08T13:13:36Z
2019-07-08T11:16:21Z,42.805,6.029,13.2957,4.59958,2469.83,2019-7-08T13:16:39Z
2019-07-08T11:19:24Z,42.805,6.029,13.2953,4.59958,2469.89,2019-7-08T13:19:42Z
2019-07-08T11:22:27Z,42.805,6.029,13.2954,4.59955,2469.876,2019-7-08T13:22:45Z
2019-07-08T11:25:30Z,42.805,6.029,13.2954,4.59957,2469.914,2019-7-08T13:25:47Z
2019-07-08T11:28:33Z,42.805,6.029,13.2958,4.59957,2469.853,2019-7-08T13:28:50Z
2019-07-08T11:31:36Z,42.805,6.029,13.2955,4.59956,2469.89,2019-7-08T13:31:53Z
2019-07-08T11:34:38Z,42.805,6.029,13.2956,4.59956,2469.853,2019-7-08T13:34:56Z
2019-07-08T11:37:41Z,42.805,6.029,13.2957,4.59958,2469.867,2019-7-08T13:37:59Z
2019-07-08T11:40:44Z,42.805,6.029,13.2957,4.59960,2469.853,2019-7-08T13:41:02Z
2019-07-08T11:43:47Z,42.805,6.029,13.2953,4.59960,2469.9,2019-7-08T13:44:05Z
2019-07-08T11:46:50Z,42.805,6.029,13.2958,4.59959,2469.853,2019-7-08T13:47:08Z
2019-07-08T11:49:53Z,42.805,6.029,13.2957,4.59963,2469.876,2019-7-08T13:50:11Z
2019-07-08T11:52:56Z,42.805,6.029,13.2956,4.59956,2469.89,2019-7-08T13:53:14Z
2019-07-08T11:55:59Z,42.805,6.029,13.2956,4.59955,2469.876,2019-7-08T13:56:17Z
2019-07-08T11:59:02Z,42.805,6.029,13.2954,4.59957,2469.853,2019-7-08T13:59:20Z
2019-07-08T12:02:05Z,42.805,6.029,13.2958,4.59956,2469.867,2019-7-08T14:02:23Z
2019-07-08T12:05:08Z,42.805,6.029,13.2956,4.59956,2469.867,2019-7-08T14:05:26Z
2019-07-08T12:08:11Z,42.805,6.029,13.2956,4.59957,2469.89,2019-7-08T14:08:29Z
2019-07-08T12:11:14Z,42.805,6.029,13.2958,4.59957,2469.876,2019-7-08T14:11:32Z
2019-07-08T12:14:17Z,42.805,6.029,13.2957,4.59965,2469.9,2019-7-08T14:14:35Z
2019-07-08T12:17:20Z,42.805,6.029,13.2958,4.59959,2469.876,2019-7-08T14:17:38Z
2019-07-08T12:20:23Z,42.805,6.029,13.2952,4.59956,2469.9,2019-7-08T14:20:41Z
2019-07-08T12:23:26Z,42.805,6.029,13.2957,4.59957,2469.867,2019-7-08T14:23:44Z
2019-07-08T12:26:29Z,42.805,6.029,13.2952,4.59958,2469.867,2019-7-08T14:26:46Z
2019-07-08T12:29:32Z,42.805,6.029,13.2956,4.59958,2469.876,2019-7-08T14:29:49Z
2019-07-08T12:32:35Z,42.805,6.029,13.2956,4.59960,2469.89,2019-7-08T14:32:52Z
2019-07-08T12:35:37Z,42.805,6.029,13.2957,4.59961,2469.867,2019-7-08T14:35:55Z
2019-07-08T12:38:40Z,42.805,6.029,13.2957,4.59958,2469.89,2019-7-08T14:38:58Z
2019-07-08T12:41:43Z,42.805,6.029,13.2960,4.59958,2469.853,2019-7-08T14:42:01Z
2019-07-08T12:44:46Z,42.805,6.029,13.2957,4.59959,2469.853,2019-7-08T14:45:04Z
2019-07-08T12:47:49Z,42.805,6.029,13.2958,4.59961,2469.853,2019-7-08T14:48:07Z
2019-07-08T12:50:52Z,42.805,6.029,13.2960,4.59966,2469.844,2019-7-08T14:51:10Z
2019-07-08T12:53:55Z,42.805,6.029,13.2955,4.59960,2469.89,2019-7-08T14:54:13Z
2019-07-08T12:56:58Z,42.805,6.029,13.2957,4.59961,2469.853,2019-7-08T14:57:16Z
2019-07-08T13:00:01Z,42.805,6.029,13.2954,4.59961,2469.876,2019-7-08T15:00:19Z
2019-07-08T13:03:04Z,42.805,6.029,13.2956,4.59958,2469.89,2019-7-08T15:03:22Z
2019-07-08T13:06:07Z,42.805,6.029,13.2958,4.59966,2469.876,2019-7-08T15:06:25Z
2019-07-08T13:09:10Z,42.805,6.029,13.2952,4.59966,2469.876,2019-7-08T15:09:28Z
2019-07-08T13:12:13Z,42.805,6.029,13.2959,4.59966,2469.83,2019-7-08T15:12:31Z
2019-07-08T13:15:16Z,42.805,6.029,13.2955,4.59959,2469.853,2019-7-08T15:15:34Z
2019-07-08T13:18:19Z,42.805,6.029,13.2953,4.59962,2469.867,2019-7-08T15:18:37Z
2019-07-08T13:21:22Z,42.805,6.029,13.2954,4.59955,2469.867,2019-7-08T15:21:40Z
2019-07-08T13:24:25Z,42.805,6.029,13.2953,4.59956,2469.844,2019-7-08T15:24:42Z
2019-07-08T13:27:28Z,42.805,6.029,13.2954,4.59960,2469.867,2019-7-08T15:27:45Z
2019-07-08T13:30:31Z,42.805,6.029,13.2953,4.59956,2469.806,2019-7-08T15:30:48Z
2019-07-08T13:33:34Z,42.805,6.029,13.2957,4.59958,2469.853,2019-7-08T15:33:51Z
2019-07-08T13:36:36Z,42.805,6.029,13.2957,4.59958,2469.89,2019-7-08T15:36:54Z
2019-07-08T13:39:39Z,42.805,6.029,13.2954,4.59954,2469.867,2019-7-08T15:39:57Z
2019-07-08T13:42:42Z,42.805,6.029,13.2953,4.59954,2469.867,2019-7-08T15:43:00Z
2019-07-08T13:45:45Z,42.805,6.029,13.2954,4.59958,2469.89,2019-7-08T15:46:03Z
2019-07-08T13:48:48Z,42.805,6.029,13.2957,4.59957,2469.844,2019-7-08T15:49:06Z
2019-07-08T13:51:51Z,42.805,6.029,13.2957,4.59962,2469.83,2019-7-08T15:52:09Z
2019-07-08T13:54:54Z,42.805,6.029,13.2957,4.59956,2469.821,2019-7-08T15:55:12Z
2019-07-08T13:57:57Z,42.805,6.029,13.2958,4.59966,2469.839,2019-7-08T15:58:15Z
2019-07-08T14:01:00Z,42.805,6.029,13.2953,4.59958,2469.867,2019-7-08T16:01:18Z
2019-07-08T14:04:03Z,42.805,6.029,13.2956,4.59961,2469.853,2019-7-08T16:04:21Z
2019-07-08T14:07:06Z,42.805,6.029,13.2957,4.59956,2469.867,2019-7-08T16:07:24Z
2019-07-08T14:10:09Z,42.805,6.029,13.2957,4.59958,2469.853,2019-7-08T16:10:27Z
2019-07-08T14:13:12Z,42.805,6.029,13.2956,4.59954,2469.876,2019-7-08T16:13:30Z
2019-07-08T14:16:15Z,42.805,6.029,13.2953,4.59956,2469.867,2019-7-08T16:16:33Z
2019-07-08T14:19:18Z,42.805,6.029,13.2956,4.59954,2469.806,2019-7-08T16:19:36Z
2019-07-08T14:22:21Z,42.805,6.029,13.2957,4.59956,2469.844,2019-7-08T16:22:39Z
2019-07-08T14:25:24Z,42.805,6.029,13.2952,4.59955,2469.83,2019-7-08T16:25:41Z
2019-07-08T14:28:27Z,42.805,6.029,13.2955,4.59955,2469.853,2019-7-08T16:28:44Z
2019-07-08T14:31:30Z,42.805,6.029,13.2956,4.59957,2469.83,2019-7-08T16:31:47Z
2019-07-08T14:34:32Z,42.805,6.029,13.2954,4.59956,2469.853,2019-7-08T16:34:50Z
2019-07-08T14:37:35Z,42.805,6.029,13.2956,4.59956,2469.821,2019-7-08T16:37:53Z
2019-07-08T14:40:38Z,42.805,6.029,13.2955,4.59957,2469.806,2019-7-08T16:40:56Z
2019-07-08T14:43:41Z,42.805,6.029,13.2956,4.59955,2469.806,2019-7-08T16:43:59Z
2019-07-08T14:46:44Z,42.805,6.029,13.2953,4.59956,2469.797,2019-7-08T16:47:02Z
2019-07-08T14:49:47Z,42.805,6.029,13.2953,4.59955,2469.806,2019-7-08T16:50:05Z
2019-07-08T14:52:50Z,42.805,6.029,13.2958,4.59956,2469.83,2019-7-08T16:53:08Z
2019-07-08T14:55:53Z,42.805,6.029,13.2956,4.59956,2469.821,2019-7-08T16:56:11Z
2019-07-08T14:58:56Z,42.805,6.029,13.2953,4.59956,2469.821,2019-7-08T16:59:14Z
2019-07-08T15:01:59Z,42.805,6.029,13.2956,4.59956,2469.83,2019-7-08T17:02:17Z
2019-07-08T15:05:02Z,42.805,6.029,13.2956,4.59958,2469.806,2019-7-08T17:05:20Z
2019-07-08T15:08:05Z,42.805,6.029,13.2957,4.59976,2469.806,2019-7-08T17:08:23Z
2019-07-08T15:11:08Z,42.805,6.029,13.2958,4.59956,2469.76,2019-7-08T17:11:26Z
2019-07-08T15:14:11Z,42.805,6.029,13.2957,4.59954,2469.806,2019-7-08T17:14:29Z